Weather Roundup
Issued by NWS Chicago, IL

Home | Current Version | Previous Version | Graphics & Text | Print | Product List | Glossary On
Versions: 1 2 3 4 5 6 7 8 9 10 11 12 13 14 15 16 17 18 19 20 21 22 23 24 25 26 27 28 29 30 31 32 33 34 35 36 37 38 39 40 41 42 43 44 45 46 47 48 49 50
000
NZUS59 KLOT 190502
HRRLOT

CHICAGO AREA WEATHER ROUNDUP
NATIONAL WEATHER SERVICE CHICAGO/ROMEOVILLE IL
1200 AM CDT SUN APR 19 2015

NOTE: "FAIR" INDICATES FEW OR NO CLOUDS BELOW 12,000 FEET WITH NO
SIGNIFICANT WEATHER AND/OR OBSTRUCTIONS TO VISIBILITY.

* THESE STATIONS ARE NOT UNDER NWS QUALITY CONTROL. THEY ALSO MAY NOT
  REPORT WEATHER SUCH AS PRECIPITATION OR FOG.

ILZ005-006-012>014-019>023-190600-
NORTHEAST ILLINOIS

CITY           SKY/WX    TMP DP  RH WIND       PRES   REMARKS
OHARE          CLOUDY    50  35  56 E5        29.97F
MIDWAY         CLOUDY    56  38  50 E12       29.97F
AURORA         MOCLDY    54  37  52 E12       29.95F
WAUKEGAN       PTCLDY    48  32  53 NE9       29.99F
DUPAGE AIRPORT CLOUDY    52  37  56 E10G20    29.95F
WHEELING       CLOUDY    50  34  54 NE3       29.99F
NORTHERLY IS     N/A     50  39  66 NE6         N/A
$$

WIZ051-052-058>065-066-070>072-190600-
SOUTHEAST WISCONSIN

CITY           SKY/WX    TMP DP  RH WIND       PRES   REMARKS
MILWAUKEE      PTCLDY    43  31  62 NE6       30.02F
KENOSHA*       PTCLDY    48  32  53 E10       30.00F
RACINE*        PTCLDY    43  33  68 NE7       30.02F
$$

INZ001>003-010>013-019-020-190600-
NORTHWEST INDIANA

CITY           SKY/WX    TMP DP  RH WIND       PRES   REMARKS
GARY*          NOT AVBL
MICHIGAN CITY* NOT AVBL
RENSSELAER*    NOT AVBL
$$

LMZ740>746-190600-
SOUTHERN LAKE MICHIGAN

STATION/POSITION TIME  SKY/WX   TEMP WIND        PRES    VSBY
                                AIR  DIR/SP/G
                 (UTC)          (F)  (DEG/KT/KT) (MB)    (MI)
HARRISON CRIB    0400            45  360/  7/  8   N/A
BURNHAM HARBOR   0500            49   30/  4/  8   N/A
CALUMET HARBOR   0400            47   50/  6/  8   N/A
BURNS HARBOR     0400            44   50/  4/  6 1016.3F
MICHIGAN CITY    0400                 80/ 13/ 18   N/A
$$

ABBREVIATIONS USED IN REMARKS
   TC - TEMPERATURE IN CELSIUS
  WCI - WIND CHILL INDEX
   HX - HEAT INDEX
  VSB - VISIBILITY
$$


USA.gov is the U.S. government's official web portal to all federal, state and local government web resources and services.